Regional Weather Roundup
Issued by NWS Wakefield, VA

Home | Current Version | Previous Version | Graphics & Text | Print | Product List | Glossary On
Versions: 1 2 3 4 5 6 7 8 9 10 11 12 13 14 15 16 17 18 19 20 21 22 23 24 25 26 27
000
ASUS41 KAKQ 200314
RWRAKQ

REGIONAL WEATHER ROUNDUP
NATIONAL WEATHER SERVICE WAKEFIELD VA
1000 PM EST SUN FEB 19 2017

Note: "fair" indicates few or no clouds below 12,000 feet with no
significant weather and/or obstructions to visibility. * = Denotes
station may not report precipitation (e.g., rain,snow,etc.),
thunder or fog.

VAZ042-051-052>054-056-200400-
NORTHERN VIRGINIA

CITY           SKY/WX    TMP DP  RH WIND       PRES   REMARKS
WASH NATIONAL  PTCLDY    59  42  53 NW12      30.04R
DULLES         CLEAR     55  41  59 NW12      30.05R
FORT BELVOIR   CLEAR     58  41  54 NW12      30.04R
QUANTICO       CLEAR     59  40  49 NW7       30.05R
FREDERICKSBRG* PTCLDY    59  39  47 N3        30.04R
STAFFORD*      CLEAR     55  37  49 CALM      30.08S
WARRENTON      CLEAR     46  33  60 CALM      30.05R
CULPEPER*      PTCLDY    48  36  62 CALM      30.06R
MANASSAS*      CLEAR     55  40  56 N5        30.06R
LEESBURG*      CLEAR     54  45  71 NW9       30.07R
WINCHESTER     CLEAR     52  39  62 W15       30.07R
FRONT ROYAL*   CLEAR     55  37  50 SW6       30.07R
LURAY*         CLEAR     45  37  76 CALM      30.09R
$$

VAZ048-049-060>072-079>083-200400-
CENTRAL AND SOUTH CENTRAL VIRGINIA

CITY           SKY/WX    TMP DP  RH WIND       PRES   REMARKS
RICHMOND       CLEAR     56  41  57 N7        30.03R
CHESTERFIELD*  FAIR      52  30  43 CALM      30.05R
PETERSBURG*    CLEAR     56  43  63 NW5       30.04R
HANOVER        PTCLDY    57  37  47 N3        30.05R
TAPPAHANNOCK*  PTCLDY    53  33  47 CALM      30.04R
QUINTON*       FAIR      55  44  67 CALM      30.03R
CHARLOTTSVILLE CLEAR     62  34  35 W6        30.05R
GORDONSVILLE*  PTCLDY    46  37  71 CALM      30.05R
ORANGE*        PTCLDY    45  36  70 CALM      30.07R
LOUISA*        PTCLDY    57  37  47 CALM      30.04R
BUMPASS*       FAIR      51  37  58 CALM      30.04R
FARMVILLE*     PTCLDY    53  43  68 CALM      30.05R
CREWE*         FAIR      58  43  56 NW3       30.05R
FORT PICKETT*  FAIR      55  37  49 NW6       30.05R
CHASE CITY*    FAIR      55  40  57 W3        30.07R
CLARKSVILLE*   FAIR      55  43  62 NW7       30.06R
SOUTH HILL*    CLEAR     58  44  58 NW3       30.11R
LAWRENCEVILLE* FAIR      57  43  59 NW3       30.05R
EMPORIA*       CLEAR     50  43  76 CALM      30.05R
$$

VAZ088>098-200400-
SOUTHEAST VIRGINIA

CITY           SKY/WX    TMP DP  RH WIND       PRES   REMARKS
NORFOLK        CLEAR     51  44  77 CALM      30.01R
VIRGINIA BEACH PTCLDY    49  40  71 CALM      30.01R
NORFOLK NAVAL  CLEAR     50  42  74 CALM      30.03R
WEST POINT*    CLEAR     46  43  90 CALM      30.05R
SALUDA*        FAIR      46  45  94 CALM      30.02R
NEWPORT NEWS   CLEAR     47  44  90 NE3       30.02R
LANGLEY AFB    CLEAR     50  44  80 CALM      30.01R
FORT EUSTIS    CLEAR     50  43  76 CALM      29.99R
WILLIAMSBURG*  CLEAR     52  46  82 CALM      30.03R
HR EXEC AP*    FAIR      43  37  81 CALM      30.01R
FRANKLIN*      CLEAR     49  44  83 CALM      30.03R
US460-WAKEFLD  CLEAR     51  46  83 CALM      30.02R
$$

VAZ020-022-025-037-045-200400-
WEST CENTRAL AND SOUTHWEST VIRGINIA

CITY           SKY/WX    TMP DP  RH WIND       PRES   REMARKS
STAUNTON*      CLEAR     41  33  73 CALM      30.11S
WAYNESBORO*    PTCLDY    51  39  63 W7        30.09R
HOT SPRINGS VA CLEAR     41  39  93 W17       30.13R
LYNCHBURG      CLEAR     51  41  68 W3        30.10R
DANVILLE       CLEAR     55  42  61 NW8       30.10R
SOUTH BOSTON*  FAIR      56  40  56 W5        30.08R
MARTINSVILLE   CLEAR     49  39  70 CALM      30.14R
ROANOKE        CLEAR     50  39  66 CALM      30.15R
BLACKSBURG     CLEAR     46  42  88 W3        30.17S
DUBLIN*        CLEAR     47  42  80 CALM      30.16S
MARION*        CLEAR     48  45  88 W12       30.20R
HILLSVILLE*    CLEAR     48  43  82 NW8       30.14S
RICHLANDS*     FAIR      50  42  75 CALM      30.18R
WISE*          CLEAR     46  41  81 CALM      30.18S
ABINGDON*      CLEAR     45  43  92 CALM      30.17S
$$

MDZ021>025-VAZ099-100-200400-
SOUTHERN MARYLAND AND THE DELMARVA PENINSULA

CITY           SKY/WX    TMP DP  RH WIND       PRES   REMARKS
PATUXENT RIVER CLEAR     55  42  61 NW9       30.03R
BAY BRIDGE APT CLEAR     52  41  66 W6        30.01R
LEONARDTOWN    CLEAR     59  37  44 W6        30.05R
DOVER          PTCLDY    55  42  62 W7        29.98R
GEORGETOWN     CLEAR     55  42  61 W3        30.00R
EASTON         CLEAR     58  40  49 W5        30.05R
CAMBRIDGE      CLEAR     55  41  58 W5        30.02R
SALISBURY      CLEAR     58  42  55 NW10      29.99R
OCEAN CITY     CLEAR     55  42  61 NW7       29.99R
WALLOPS ISLAND CLEAR     51  43  74 W6        30.00R
ACCOMACK*      CLEAR     47  43  87 NW5       30.01R
$$

NCZ012>017-030>032-200400-
NORTH CENTRAL AND EASTERN NORTH CAROLINA

CITY           SKY/WX    TMP DP  RH WIND       PRES   REMARKS
ROANOKE RAPIDS FAIR      59  45  58 W6        30.04R
RALEIGH        CLEAR     59  42  53 CALM      30.08R
ELIZABETH CITY CLEAR     50  44  80 CALM      30.02R
AHOSKIE*         N/A     49  45  85 CALM      30.04R
EDENTON*       CLEAR     55  47  74 SW3       30.04R
CURRITUCK*     CLEAR     51  46  82 CALM      30.02R
KILL DEVIL HLS NOT AVBL
MANTEO         CLEAR     48  45  90 CALM      30.03R
CAPE HATTERAS  CLEAR     49  45  86 N3        30.02R
TARBORO*       NOT AVBL
GOLDSBORO      CLEAR     57  46  64 CALM      30.03R
WASHINGTON       N/A     52  46  78 CALM      30.03R
GREENVILLE     CLEAR     48  37  66 CALM      30.06R
NEW BERN       CLEAR     53  49  86 CALM      30.04R
WILMINGTON     CLEAR     52  48  86 CALM      30.05R
$$

VAZ048-200400-
ELSEWHERE

CITY           SKY/WX    TMP DP  RH WIND       PRES   REMARKS
HARRISBURG PA  CLEAR     55  36  48 NW10      30.01R
BALTIMORE      CLEAR     53  41  63 W9        30.01R
ANNAPOLIS      PTCLDY    59  41  51 W7        30.01R
ANDREWS AFB    CLEAR     57  41  54 W9        30.03R
PHILADELPHIA   CLEAR     59  33  37 W9        29.97R
HENDERSON NC   CLEAR     55  39  56 NW5       30.07R
GREENSBORO     CLEAR     55  41  59 N6        30.10R
ROCKY MOUNT    CLEAR     54  46  74 NW5       30.05R
$$

VAZ100-200400-
MARINE

STATION/POSITION TIME  TEMP    WIND        PRES    WAVE   SWELL
                       AIR SEA DIR/SP/G            HT/PER HT/PER
                 (UTC) (F)     (DEG/KT/KT) (MB)    (FT/S) (FT/S)
CAPE MAY NJ      0248   49 40  280/  4/  5 1014.6R
LEWES DE         0248   58 42  280/  9/ 10 1015.1R
OCEAN-CITY-INLET 0248   56 45  330/  8/ 10 1015.8R
WACHAPREAGUE VA  0248   54 52  290/  1/  3 1016.0R
THOMAS POINT MD  0300   59 40  290/ 13/ 14   N/A
GOOSES REEF MD   0300   51 42  290/  8/  8 1017.2
COVE POINT MD    0248   60     330/ 12/ 16 1017.1R
SOLOMONS ISLAND  0242   58 43  330/  9/ 12   N/A
BISHOPS HEAD MD  0248   54 45  320/  8/  9 1016.5R
PINEY POINT MD   0248           10/ 13/ 14   N/A
POTOMAC MD       0300   49 43  310/  6/  8 1015.6    0
CAMBRIDGE MD     0248   58 40  280/  8/ 11 1015.6R
LEWISETTA VA     0248   59 44  330/  8/ 10 1016.4R
RAPPAHANNOCK LGT 0248          350/  4/  4 1016.8R
YORK RVR RNG VA  0248   53     360/  5/  6 1015.7R
YORKTOWN VA      0248   53 48  270/  4/  5 1016.0R
JAMESTOWN VA     0300   52 49  300/  4/  6   N/A     0
DOMINION TERM VA 0248   55     130/  1/  2 1016.2R
KIPTOPEKE VA     0248      45  340/  2/  3   N/A
CHES BAY BRIDGE  0248   56 45  290/  2/  3 1016.2R
CAPE HENRY VA    0248   59     300/  3/  3   N/A
WILLOUBY STN VA  0242   57     250/  1/  2 1017.1R
S CRANEY ISL VA  0248   53      CALM  /  1 1016.0R
CAPE HENRY BUOY  0242      47                N/A     1/ 7
OFFSHORE WE BUOY 0251      48                N/A     2/ 7
64NM E OF VA BCH 0250   52 51  230/  4/  6 1015.5R   2/ 8   2/ 8
DUCK PIER NC     0248   56 49  230/  4/  4 1015.9R
44100 DUCK FRF   0205      48                N/A     2/ 7
44056 DUCK FRF   0230      49                N/A     1/ 7
OREGON INLET NC  0242   53 51  250/  2/  2 1016.3R
HATTERAS NC      0248   57 57     CALM     1016.2R
DIAMOND SHLS NC  0250   63 67  350/  8/  8 1016.5R   2/ 8   2/ 8
CAPE LOOKOUT NC  0300   58     270/  5/  5 1016.6R
$$




USA.gov is the U.S. government's official web portal to all federal, state and local government web resources and services.